Regional Weather Roundup
Issued by NWS Wakefield, VA

Home | Current Version | Previous Version | Text Only | Print | Product List | Glossary Off
Versions: 1 2 3 4 5 6 7 8 9 10 11 12 13 14 15 16 17 18 19 20 21 22 23 24 25 26 27 28 29

000
ASUS41 KAKQ 221814
RWRAKQ

REGIONAL WEATHER ROUNDUP
NATIONAL WEATHER SERVICE WAKEFIELD VA
100 PM EST WED FEB 22 2017

Note: "fair" indicates few or no clouds below 12,000 feet with no
significant weather and/or obstructions to visibility. * = Denotes
station may not report precipitation (e.g., rain,snow,etc.),
thunder or fog.

VAZ042-051-052>054-056-221900-
NORTHERN VIRGINIA

CITY           SKY/WX    TMP DP  RH WIND       PRES   REMARKS
WASH NATIONAL  CLOUDY    57  45  64 S7        29.96F
DULLES         CLOUDY    60  42  51 SW5       29.95F
FORT BELVOIR   CLOUDY    60  44  56 SW5       29.95F
QUANTICO       CLOUDY    52  48  86 S7        29.97F
FREDERICKSBRG* CLOUDY    59  51  75 CALM      29.96F
STAFFORD*      CLOUDY    58  50  75 S3        30.00F
WARRENTON      CLOUDY    65  45  48 SW9       29.94F
CULPEPER*      MOSUNNY   63  50  63 S5        29.96F
MANASSAS*      PTSUNNY   61  47  59 VRB6      29.95F
LEESBURG*      MOSUNNY   61  46  59 E3        29.95F
WINCHESTER     CLOUDY    61  43  51 CALM      29.92F
FRONT ROYAL*   CLOUDY    63  46  55 SW7       29.92F
LURAY*         CLOUDY    63  50  63 SW10      29.93F
$$

VAZ048-049-060>072-079>083-221900-
CENTRAL AND SOUTH CENTRAL VIRGINIA

CITY           SKY/WX    TMP DP  RH WIND       PRES   REMARKS
RICHMOND       CLOUDY    54  54 100 S8        29.98F FOG
CHESTERFIELD*  CLOUDY    54  37  54 SW3       30.01F
PETERSBURG*    LGT RAIN  53  50  92 CALM      30.01F
HANOVER        CLOUDY    58  50  75 SW6       29.99F
TAPPAHANNOCK*  CLOUDY    59  45  58 SW6       29.98F
QUINTON*       CLOUDY    55  55 100 SW6       29.99F FOG
CHARLOTTSVILLE CLOUDY    58  51  78 S5        29.95F
GORDONSVILLE*  CLOUDY    57  50  77 SW8       29.95F
ORANGE*        CLOUDY    59  46  63 S7        29.96F
LOUISA*        CLOUDY    61  52  72 SW7       29.95F
BUMPASS*       CLOUDY    58  48  70 SW6       29.97F
FARMVILLE*     CLOUDY    53  53  97 CALM      29.98F
CREWE*         CLOUDY    53  53 100 CALM      29.99F
FORT PICKETT*  CLOUDY    54  50  86 S8        29.99F
CHASE CITY*    CLOUDY    53  51  94 CALM      30.00F
CLARKSVILLE*   CLOUDY    52  52 100 CALM      30.00F
SOUTH HILL*    CLOUDY    56  51  82 CALM      30.06F
LAWRENCEVILLE* CLOUDY    57  50  77 CALM      30.00F
EMPORIA*       CLOUDY    57  48  72 CALM      30.02F
$$

VAZ088>098-221900-
SOUTHEAST VIRGINIA

CITY           SKY/WX    TMP DP  RH WIND       PRES   REMARKS
NORFOLK        CLOUDY    68  50  52 S10       29.98F
VIRGINIA BEACH CLOUDY    67  49  52 W3        29.97F
NORFOLK NAVAL  PTSUNNY   68  50  52 SW6       29.99F
WEST POINT*    CLOUDY    59  49  69 SW8       30.00F
SALUDA*        CLOUDY    60  51  71 SW6       29.98F
NEWPORT NEWS   CLOUDY    64  50  60 W12       29.99F
LANGLEY AFB    CLOUDY    65  52  61 W8        29.98F
FORT EUSTIS    PTSUNNY   62  50  65 NW7       29.97F
WILLIAMSBURG*  CLOUDY    63  52  67 W6        30.00F
HR EXEC AP*    MOCLDY    66  52  59 W9        29.97F
FRANKLIN*      CLOUDY    64  51  62 CALM      30.00F
US460-WAKEFLD  CLOUDY    58  49  72 NW6       30.01F
$$

VAZ020-022-025-037-045-221900-
WEST CENTRAL AND SOUTHWEST VIRGINIA

CITY           SKY/WX    TMP DP  RH WIND       PRES   REMARKS
STAUNTON*      CLOUDY    59  49  69 SW7       29.96F
WAYNESBORO*    CLOUDY    59  48  66 W7        29.96F
HOT SPRINGS VA CLOUDY    50  50 100 W10G16    29.98F
LYNCHBURG      CLOUDY    54  49  83 SW5       30.00F
DANVILLE       CLOUDY    55  53  93 CALM      30.00F
SOUTH BOSTON*  CLOUDY    54  52  95 CALM      30.00F
MARTINSVILLE   LGT RAIN  51  48  91 CALM      30.02F
ROANOKE        LGT RAIN  53  49  86 W3        30.01F
BLACKSBURG     LGT RAIN  50  49  97 CALM      30.02F
DUBLIN*        RAIN      51  49  93 SW3       30.00F
MARION*        RAIN      51  50  97 E3        30.01F
HILLSVILLE*    DRIZZLE   53  52  99 SW8       29.98F
RICHLANDS*     DRIZZLE   54  53  95 S3        29.97F
WISE*          CLOUDY    55  55 100 CALM      29.97F
ABINGDON*      LGT RAIN  55  54  95 E6        29.97F
$$

MDZ021>025-VAZ099-100-221900-
SOUTHERN MARYLAND AND THE DELMARVA PENINSULA

CITY           SKY/WX    TMP DP  RH WIND       PRES   REMARKS
PATUXENT RIVER CLOUDY    50  47  89 S6        29.97F
BAY BRIDGE APT PTSUNNY   55  45  67 SE8       29.96F
LEONARDTOWN    CLOUDY    55  45  67 SW5       29.99S
DOVER          CLOUDY    56  53  89 SW8       29.95F
GEORGETOWN     CLOUDY    63  50  62 SW14      29.96F
EASTON         MOSUNNY   59  46  63 SW7       30.00F
CAMBRIDGE      CLOUDY    57  48  72 MISG      29.97F
SALISBURY      CLOUDY    61  50  67 S8        29.97F
OCEAN CITY     MOSUNNY   53  48  83 S6        29.99F
WALLOPS ISLAND CLOUDY    58  51  78 S7        29.99F
ACCOMACK*      CLOUDY    64  50  61 SW12      29.98F
$$

NCZ012>017-030>032-221900-
NORTH CENTRAL AND EASTERN NORTH CAROLINA

CITY           SKY/WX    TMP DP  RH WIND       PRES   REMARKS
ROANOKE RAPIDS CLOUDY    64  52  63 CALM      29.99F
RALEIGH        CLOUDY    68  52  56 S6        29.98F
ELIZABETH CITY CLOUDY    68  50  52 SW7       29.99F
AHOSKIE*         N/A     66  52  60 S3        29.99F
EDENTON*       CLOUDY    72  49  44 SW7       29.99F
CURRITUCK*     CLOUDY    67  49  52 S3        30.00F
KILL DEVIL HLS NOT AVBL
MANTEO         CLOUDY    68  50  52 S12       30.00F
CAPE HATTERAS  MOSUNNY   71  51  49 SE9       30.00F
TARBORO*       NOT AVBL
GOLDSBORO      MOSUNNY   73  50  43 S8        29.95F
WASHINGTON     MOSUNNY   71  48  45 E6        29.98F
GREENVILLE     MOSUNNY   72  45  37 SW5       30.00F
NEW BERN       PTSUNNY   71  51  49 VRB6      29.98F
WILMINGTON     SUNNY     71  55  56 SE14G20   29.97F
$$

VAZ048-221900-
ELSEWHERE

CITY           SKY/WX    TMP DP  RH WIND       PRES   REMARKS
HARRISBURG PA  CLOUDY    57  40  52 E3        29.93F
BALTIMORE      CLOUDY    60  43  53 CALM      29.95F
ANNAPOLIS      PTSUNNY   48  45  89 SE10      29.96F
ANDREWS AFB    PTSUNNY   60  45  57 W5        29.94F
PHILADELPHIA   CLOUDY    55  42  61 VRB3      29.97F
HENDERSON NC   CLOUDY    54  47  79 N3        30.00F
GREENSBORO     CLOUDY    58  54  86 N3        29.98F
ROCKY MOUNT    CLOUDY    70  51  51 SW5       29.97F
$$

VAZ100-221900-
MARINE

STATION/POSITION TIME  TEMP    WIND        PRES    WAVE   SWELL
                       AIR SEA DIR/SP/G            HT/PER HT/PER
                 (UTC) (F)     (DEG/KT/KT) (MB)    (FT/S) (FT/S)
CAPE MAY NJ      1736   49 42  140/  8/ 11 1014.8F
LEWES DE         1748   55 43  140/  6/  9 1014.4F
OCEAN-CITY-INLET 1736   47 44  190/  3/  6 1016.1F
WACHAPREAGUE VA  1748   57 50  190/  7/  8 1015.6F
THOMAS POINT MD  1800   47 41  180/  4/  4   N/A
GOOSES REEF MD   1800   47 44  160/ 10/ 12 1015.2
COVE POINT MD    1748   45     180/  9/  9 1015.5F
SOLOMONS ISLAND  1736   49 44   80/  5/  6   N/A
BISHOPS HEAD MD  1748   46 45  150/  7/  8 1015.4F
PINEY POINT MD   1748          110/  4/  4   N/A
POTOMAC MD       1800   46 45  130/  4/  6 1014.1    0
CAMBRIDGE MD     1748   57 42  180/  4/  7 1014.0F
LEWISETTA VA     1748   56 43  260/  6/  7 1014.6F
RAPPAHANNOCK LGT 1748          170/  7/  7 1016.0F
YORK RVR RNG VA  1748   53     120/  2/  3 1014.7F
YORKTOWN VA      1748   60 47  270/  6/  7 1015.1F
JAMESTOWN VA     1800   54 51  300/  6/  6   N/A     0
DOMINION TERM VA 1748   58     320/  5/  6 1015.4F
KIPTOPEKE VA     1748      47  180/  4/  5   N/A
CHES BAY BRIDGE  1748   57 48   50/  2/  3 1015.3F
CAPE HENRY VA    1748   61     140/  7/ 10   N/A
WILLOUBY STN VA  1748   60     290/  4/  4 1016.3F
S CRANEY ISL VA  1748   60     360/  7/  8 1015.2F
CAPE HENRY BUOY  1742      49                N/A     3/ 8   2/11
OFFSHORE WE BUOY 1651      48                N/A     3/ 9   2/11
64NM E OF VA BCH 1750   59 55  190/  4/  6 1016.1F   4/ 9   3/ 9
DUCK PIER NC     1748   60 48  120/  2/  3 1015.6F
44100 DUCK FRF   1705      49                N/A     3/ 9
44056 DUCK FRF   1700      50                N/A     3/ 9   2/11
OREGON INLET NC  1742   65 51  170/  5/  7 1015.9F
HATTERAS NC      1748   67 59  150/  6/  9 1015.5F
DIAMOND SHLS NC  1750   67 75  140/ 10/ 12 1015.8F   3/ 8   3/ 8
CAPE LOOKOUT NC  1800   65     140/  7/  7 1015.0F
$$




USA.gov is the U.S. government's official web portal to all federal, state and local government web resources and services.